METEOR 2-17 DEB, 45521

Orbit data source: Space-Track

METEOR 2-17 DEB, 45521 is space debris in LEO originally from a launch on Sat, 30 Jan 1988 UTC launched from the Plesetsk Missile And Space Complex (PKMTR). Debris objects in space refer to the collection of defunct objects orbiting the Earth. Examples of debris include non-operational satellites, rocket bodies, and fragments generated from explosions, collisions, or faulty payload assembly.

Loading next visibility...
Identifier
45521, 1988-005BB
Orbit
LEO
Country
Flag of CISCIS
Related business
Manufacturer
Unknown
Mission
Spacecraft
Bus & Motor
Unknown
Mass
Unknown
Launch date (UTC)
1988-01-30 (38 years ago)
Launch vehicle
Unknown
Launch site
Plesetsk Missile And Space Complex (PKMTR)
Object type
Payload
Rocket body
Debris
Shape & HBR
Unknown shape, 0.1 m
Radar Cross Section
Small (<0.1 m²)

Expand to show TLE details & history
Last TLE update: 1 week ago

TLE from 1 week ago
0 METEOR 2-17 DEB
1 45521U 88005BB  25298.21541538  .00002969  00000-0  21354-2 0  9996
2 45521  82.5046 115.0717 0016369 282.9283  77.0055 13.96526729605011
Epoch: 2025-10-25T05:10Z
TLE epoch observation values (Epoch: 2025-10-25T05:10:11.888Z)
Latitude
-0.00011°
Longitude
3.67299°
Altitude
906.102 km
Speed
7.4 km/s
True Right ascension
07h 40m 17s
True Declination
0° 00' 00"
Sunlit
Object was in daylight at epoch
Visualization orbit readout
Latitude
Unknown
Longitude
Unknown
Altitude
Unknown
Speed
Unknown
Apparent Right ascension
Unknown
Apparent Declination
Unknown
Sunlit
N/A
Visualization observer readout
Local Sidereal Time
16:42:35
Azimuth
Unknown
Elevation
Unknown
Doppler factor
Unknown
Orbital elements
Apogee altitude
914.902 km
Perigee altitude
891.065 km
Semi-major axis
7,281.121 km
Eccentricity
0.00164
Inclination
82.5046°
RAAN
115.0717°
Arg. of periapsis
282.9283°
True anomaly
77.18836°
Mean anomaly
77.0055°
Eccentric anomaly
77.09692°
Mean motion
3.49338 °/min
Orbital period
103.05 mins
BSTAR
0.0021354
Loading maneuver chart data...
Computing Atmospheric mass density...
Loading historical data...
Loading historical data...
Loading historical data...
Loading historical data...
Loading historical data...
Loading historical data...
Loading historical data...

Documentation

Showing up to 5 results
|